STARLINK-31342, 59166

Orbit data source: Space-Track

STARLINK-31342, 59166 is a payload satellite owned by SpaceX/Seattle (US) in LEO that was launched on Mon, 04 Mar 2024 UTC via an FALCON 9 launch vehicle from the Air Force Eastern Test Range (AFETR). Payload-class satellites include a variety of spacecraft equipped with specific instruments for various scientific and technological missions. These include communications satellites like Starlink; space stations such as the ISS; scientific satellites like the Hubble; Earth observation satellites from companies like Planet Labs, Umbra, and HawkEye 360; GPS; miniature CubeSats for education and research; and military/defense satellites.

Loading next visibility...
Identifier
59166, 2024-044Q
Orbit
LEO
Country
Flag of USUS
Related business
Manufacturer
SpaceX/Seattle
Mission
Operational Commercial Communications
Bus & Motor
STARLINK V2M, Unknown motor
Mass
730 kg wet, ~700 kg dry
Launch date (UTC)
2024-03-04 (2 years ago)
Launch vehicle
FALCON 9
Launch site
Air Force Eastern Test Range (AFETR)
Object type
Payload
Rocket body
Debris
Shape & HBR
Box + 2 Pan, 14.5 m
Radar Cross Section
33.884 m², Large (>1 m²)

Expand to show TLE details & history
Last TLE update: 1 day ago

TLE from 1 day ago
0 STARLINK-31342
1 59166U 24044Q   25250.45906122  .00004012  00000-0  15516-3 0  9992
2 59166  43.0046  61.7470 0000895 277.7157  82.3593 15.27595790 85574
Epoch: 2025-09-07T11:01Z
TLE epoch observation values (Epoch: 2025-09-07T11:01:02.889Z)
Latitude
-0.00002°
Longitude
-90.29329°
Altitude
482.696 km
Speed
7.626 km/s
True Right ascension
04h 06m 59s
True Declination
0° 00' 00"
Sunlit
Object was in daylight at epoch
Visualization orbit readout
Latitude
Unknown
Longitude
Unknown
Altitude
Unknown
Speed
Unknown
Apparent Right ascension
Unknown
Apparent Declination
Unknown
Sunlit
N/A
Visualization observer readout
Local Sidereal Time
06:21:24
Azimuth
Unknown
Elevation
Unknown
Doppler factor
Unknown
Orbital elements
Apogee altitude
485.56 km
Perigee altitude
484.332 km
Semi-major axis
6,863.083 km
Eccentricity
0.00009
Inclination
43.0046°
RAAN
61.747°
Arg. of periapsis
277.7157°
True anomaly
82.36947°
Mean anomaly
82.3593°
Eccentric anomaly
82.36438°
Mean motion
3.81737 °/min
Orbital period
94.31 mins
BSTAR
0.00015516
Loading maneuver chart data...
Computing Atmospheric mass density...
Loading historical data...
Loading historical data...
Loading historical data...
Loading historical data...
Loading historical data...
Loading historical data...
Loading historical data...

Documentation

Showing up to 5 results
|